{"data":{"norad_id":60356,"epoch":"2026-09-21T20:55:16.647744Z","epoch_age_seconds":67043,"freshness":"FRESH","line1":"1 60356U 24138B   26264.87172046 -.00000221  00000+0  45979-5 0  9997","line2":"2 60356  53.1599 116.9523 0001316  88.5389 271.5765 15.34391579120680","mean_motion":15.34391579,"eccentricity":0.0001316,"inclination_deg":53.1599,"raan_deg":116.9523,"arg_perigee_deg":88.5389,"mean_anomaly_deg":271.5765,"bstar":4.5979e-6,"rev_number":12068,"period_min":93.848273133673,"perigee_km":461.82801143878,"apogee_km":463.62852717766,"semimajor_km":6840.8652693082,"source":"CELESTRAK","updated_at":"2026-09-22T09:00:49.223750Z"}}